Hourly Data Report for October 08, 2015

All times are specified in Local Standard Time (LST). Add 1 hour to adjust for Daylight Saving Time where and when it is observed.

PETAWAWA AWOS 2
ONTARIO

45°57'00.000" N
77°19'00.000" W
130.10 m
6106396
71625
YWA

Download Data

Hourly Data (October 2015)
Hourly Data Report for October 8, 2015
Temp Definition
°C
Dew Point Temp Definition
°C
Rel Hum Definition
%
Wind Dir Definition
10's deg

Wind Spd Definition
km/h
Visibility Definition
km
Stn Press Definition
kPa
Hmdx Definition


Wind Chill Definition


Weather Definition


TIME
00:00 5.8 0.8 70 33 11 14.5 100.57     LegendNANA
01:00 5.8 0.7 70 34 13 14.5 100.65     LegendNANA
02:00 1.7 -0.2 87 26 6 14.5 100.69     LegendNANA
03:00 0.7 -0.6 91 27 6 14.5 100.71     LegendNANA
04:00 0.6 -0.6 92 29 4 14.5 100.72     LegendNANA
05:00 -0.3 -1.4 92 25 6 14.5 100.77   -2 LegendNANA
06:00 -0.7 -1.5 94 26 6 14.5 100.81   -3 LegendNANA
07:00 0.1 -1.0 92 27 6 14.5 100.84     LegendNANA
08:00 3.9 1.8 86   0 14.5 100.90     LegendNANA
09:00 7.0 1.8 70 9 6 14.5 100.88     Rain
10:00 8.1 1.7 64   0 14.5 100.85     LegendNANA
11:00 9.2 1.3 58 6 6 14.5 100.81     LegendNANA
12:00 9.8 -0.3 49 16 4 14.5 100.74     LegendNANA
13:00 9.9 0.5 52 15 4 14.5 100.66     LegendNANA
14:00 10.6 0.7 50 12 6 14.5 100.55     LegendNANA
15:00 10.4 -0.2 48 14 9 14.5 100.50     LegendNANA
16:00 10.2 -0.2 48 15 9 14.5 100.46     LegendNANA
17:00 10.3 0.8 52 11 9 14.5 100.41     LegendNANA
18:00 9.6 2.2 60 8 7 14.5 100.39     LegendNANA
19:00 9.9 1.8 57 10 9 14.5 100.35     LegendNANA
20:00 9.5 2.6 62 13 9 14.5 100.24     LegendNANA
21:00 9.6 2.2 60 14 15 14.5 100.20     LegendNANA
22:00 9.0 2.6 64 15 9 14.5 100.17     Rain
23:00 8.0 4.5 78 10 11 14.5 100.06     Rain

Notes on Data Quality.

Legend

  • E = Estimated
  • M = Missing
  • NA = Not Available
  • ‡ = Partner data that is not subject to review by the National Climate Archives
Date modified: